Le nostre stazioni meteo in Italia

Pubblicità
Il mio iltempo24.it
Arezzo, Italia (16172): Temperatura & dewpoint: 09.11.2018 08:00:00 - 15.11.2018 08:00:00 (CET)Arezzo, Italia (16172): velocità del vento: 09.11.2018 08:00:00 - 15.11.2018 08:00:00 (CET)Arezzo, Italia (16172): direzione del vento: 09.11.2018 08:00:00 - 15.11.2018 08:00:00 (CET)Arezzo, Italia (16172): reduced air pressure: 09.11.2018 08:00:00 - 15.11.2018 08:00:00 (CET)Arezzo, Italia (16172): visibility: 09.11.2018 08:00:00 - 15.11.2018 08:00:00 (CET)
Data & Tempo tt [°C] td [°C] ff [km/h] ff [kn] dd ppp [hPa] vv [km]
15.11.2018 08:00:00 - - - - - - -
15.11.2018 07:00:00 7,0 6,0 0 0 N 1026,6 12
15.11.2018 06:00:00 - - - - - - -
15.11.2018 05:00:00 - - - - - - -
15.11.2018 04:00:00 - - - - - - -
15.11.2018 03:00:00 - - - - - - -
15.11.2018 02:00:00 - - - - - - -
15.11.2018 01:00:00 - - - - - - -
15.11.2018 00:00:00 - - - - - - -
14.11.2018 23:00:00 - - - - - - -
14.11.2018 22:00:00 - - - - - - -
14.11.2018 21:00:00 - - - - - - -
14.11.2018 20:00:00 - - - - - - -
14.11.2018 19:00:00 12,4 10,6 0 0 N 1027,2 12
14.11.2018 18:00:00 - - - - - - -
14.11.2018 17:00:00 - - - - - - -
14.11.2018 16:00:00 13,2 10,4 0 0 N 1027,5 12
14.11.2018 15:00:00 - - - - - - -
14.11.2018 14:00:00 - - - - - - -
14.11.2018 13:00:00 12,0 8,7 0 0 N 1028,9 8
14.11.2018 12:00:00 - - - - - - -
14.11.2018 11:00:00 - - - - - - -
14.11.2018 10:00:00 9,0 7,3 0 0 N 1030,2 1,5
14.11.2018 09:00:00 - - - - - - -
14.11.2018 08:00:00 - - - - - - -
14.11.2018 07:00:00 8,0 7,1 0 0 N 1029,7 0,2
14.11.2018 06:00:00 - - - - - - -
14.11.2018 05:00:00 - - - - - - -
14.11.2018 04:00:00 - - - - - - -
14.11.2018 03:00:00 - - - - - - -
14.11.2018 02:00:00 - - - - - - -
14.11.2018 01:00:00 - - - - - - -
14.11.2018 00:00:00 - - - - - - -
13.11.2018 23:00:00 - - - - - - -
13.11.2018 22:00:00 - - - - - - -
13.11.2018 21:00:00 - - - - - - -
13.11.2018 20:00:00 - - - - - - -
13.11.2018 19:00:00 11,0 9,7 0 0 N 1030,2 0,2
13.11.2018 18:00:00 - - - - - - -
13.11.2018 17:00:00 - - - - - - -
13.11.2018 16:00:00 12,0 9,9 0 0 N 1030,1 0,8
13.11.2018 15:00:00 - - - - - - -
13.11.2018 14:00:00 - - - - - - -
13.11.2018 13:00:00 11,4 9,5 0 0 N 1031,0 0,8
13.11.2018 12:00:00 - - - - - - -
13.11.2018 11:00:00 - - - - - - -
13.11.2018 10:00:00 9,4 8,5 0 0 N 1031,3 0,3
13.11.2018 09:00:00 - - - - - - -
13.11.2018 08:00:00 - - - - - - -
13.11.2018 07:00:00 8,0 7,5 0 0 N 1029,5 0,2
13.11.2018 06:00:00 - - - - - - -
13.11.2018 05:00:00 - - - - - - -
13.11.2018 04:00:00 - - - - - - -
13.11.2018 03:00:00 - - - - - - -
13.11.2018 02:00:00 - - - - - - -
13.11.2018 01:00:00 - - - - - - -
13.11.2018 00:00:00 - - - - - - -
12.11.2018 23:00:00 - - - - - - -
12.11.2018 22:00:00 - - - - - - -
12.11.2018 21:00:00 - - - - - - -
12.11.2018 20:00:00 - - - - - - -
12.11.2018 19:00:00 10,4 9,2 0 0 N 1028,2 9
12.11.2018 18:00:00 - - - - - - -
12.11.2018 17:00:00 - - - - - - -
12.11.2018 16:00:00 17,0 12,3 0 0 N 1027,4 8
12.11.2018 15:00:00 - - - - - - -
12.11.2018 14:00:00 - - - - - - -
12.11.2018 13:00:00 14,8 10,6 0 0 N 1028,4 6
12.11.2018 12:00:00 - - - - - - -
12.11.2018 11:00:00 - - - - - - -
12.11.2018 10:00:00 10,0 9,4 0 0 N 1027,7 0,6
12.11.2018 09:00:00 - - - - - - -
12.11.2018 08:00:00 - - - - - - -
12.11.2018 07:00:00 6,6 5,9 0 0 N 1026,9 0,4
12.11.2018 06:00:00 - - - - - - -
12.11.2018 05:00:00 - - - - - - -
12.11.2018 04:00:00 - - - - - - -
12.11.2018 03:00:00 - - - - - - -
12.11.2018 02:00:00 - - - - - - -
12.11.2018 01:00:00 - - - - - - -
12.11.2018 00:00:00 - - - - - - -
11.11.2018 23:00:00 - - - - - - -
11.11.2018 22:00:00 - - - - - - -
11.11.2018 21:00:00 - - - - - - -
11.11.2018 20:00:00 - - - - - - -
11.11.2018 19:00:00 11,0 9,6 0 0 N 1023,7 13
11.11.2018 18:00:00 - - - - - - -
11.11.2018 17:00:00 - - - - - - -
11.11.2018 16:00:00 16,2 10,3 4 2 ESE 1022,1 17
11.11.2018 15:00:00 - - - - - - -
11.11.2018 14:00:00 - - - - - - -
11.11.2018 13:00:00 14,4 9,0 0 0 N 1022,1 13
11.11.2018 12:00:00 - - - - - - -
11.11.2018 11:00:00 - - - - - - -
11.11.2018 10:00:00 10,6 9,5 0 0 N 1021,6 1,1
11.11.2018 09:00:00 - - - - - - -
11.11.2018 08:00:00 - - - - - - -
11.11.2018 07:00:00 7,2 6,9 0 0 N 1020,5 0,8
11.11.2018 06:00:00 - - - - - - -
11.11.2018 05:00:00 - - - - - - -
11.11.2018 04:00:00 - - - - - - -
11.11.2018 03:00:00 - - - - - - -
11.11.2018 02:00:00 - - - - - - -
11.11.2018 01:00:00 - - - - - - -
11.11.2018 00:00:00 - - - - - - -
10.11.2018 23:00:00 - - - - - - -
10.11.2018 22:00:00 - - - - - - -
10.11.2018 21:00:00 - - - - - - -
10.11.2018 20:00:00 - - - - - - -
10.11.2018 19:00:00 10,4 8,7 0 0 N 1017,3 15
10.11.2018 18:00:00 - - - - - - -
10.11.2018 17:00:00 - - - - - - -
10.11.2018 16:00:00 16,8 10,4 0 0 N 1016,0 20
10.11.2018 15:00:00 - - - - - - -
10.11.2018 14:00:00 - - - - - - -
10.11.2018 13:00:00 16,8 9,7 0 0 N 1016,8 20
10.11.2018 12:00:00 - - - - - - -
10.11.2018 11:00:00 - - - - - - -
10.11.2018 10:00:00 12,6 8,5 0 0 N 1018,3 18
10.11.2018 09:00:00 - - - - - - -
10.11.2018 08:00:00 - - - - - - -
10.11.2018 07:00:00 7,2 6,8 0 0 N 1018,5 10
10.11.2018 06:00:00 - - - - - - -
10.11.2018 05:00:00 - - - - - - -
10.11.2018 04:00:00 - - - - - - -
10.11.2018 03:00:00 - - - - - - -
10.11.2018 02:00:00 - - - - - - -
10.11.2018 01:00:00 - - - - - - -
10.11.2018 00:00:00 - - - - - - -
09.11.2018 23:00:00 - - - - - - -
09.11.2018 22:00:00 - - - - - - -
09.11.2018 21:00:00 - - - - - - -
09.11.2018 20:00:00 - - - - - - -
09.11.2018 19:00:00 12,0 10,3 0 0 N 1019,0 12
09.11.2018 18:00:00 - - - - - - -
09.11.2018 17:00:00 - - - - - - -
09.11.2018 16:00:00 15,2 10,2 0 0 N 1018,1 16
09.11.2018 15:00:00 - - - - - - -
09.11.2018 14:00:00 - - - - - - -
09.11.2018 13:00:00 12,6 9,6 8 4 SO 1020,5 10
09.11.2018 12:00:00 - - - - - - -
09.11.2018 11:00:00 - - - - - - -
09.11.2018 10:00:00 10,0 8,4 0 0 N 1022,0 1,5
09.11.2018 09:00:00 - - - - - - -
09.11.2018 08:00:00 - - - - - - -

tt = Temperatura
td = dewpoint
ff = velocità del vento
dd = direzione del vento
ppp = reduced air pressure
vv = visibility

Stazioni seguenti

WeatherPro
AMSI
MeteoEarth